TimeCEST,TemperatureF,Dew PointF,Humidity,Sea Level PressureIn,VisibilityMPH,Wind Direction,Wind SpeedMPH,Gust SpeedMPH,PrecipitationIn,Events,Conditions,WindDirDegrees,DateUTC
12:25 AM,44.6,42.8,93,29.92,6.2,Variable,2.3,-,N/A,,Unknown,0,2013-05-22 22:25:00
12:55 AM,42.8,41.0,93,29.92,6.2,Variable,1.2,-,N/A,,Unknown,0,2013-05-22 22:55:00
1:25 AM,39.2,39.2,100,29.89,3.1,Variable,1.2,-,N/A,,Mist,0,2013-05-22 23:25:00
1:55 AM,42.8,42.8,100,29.89,5.0,WSW,4.6,-,N/A,,Unknown,250,2013-05-22 23:55:00
2:00 AM,43,43,98,29.90,6,West,4.5,,,,Mist,260,2013-05-23 00:00:00
2:25 AM,42.8,42.8,100,29.89,5.6,West,3.5,-,N/A,,Unknown,270,2013-05-23 00:25:00
2:55 AM,42.8,42.8,100,29.86,6.2,West,4.6,-,N/A,,Unknown,280,2013-05-23 00:55:00
3:25 AM,44.6,35.6,71,29.86,6.2,NNW,15.0,-,N/A,Rain,Light Rain,330,2013-05-23 01:25:00
3:55 AM,42.8,39.2,87,29.86,6.2,North,6.9,-,N/A,,Light Drizzle,350,2013-05-23 01:55:00
4:25 AM,42.8,39.2,87,29.83,6.2,NNW,4.6,-,N/A,Rain,Light Rain,340,2013-05-23 02:25:00
4:55 AM,42.8,39.2,87,29.83,6.2,Variable,2.3,-,N/A,Rain,Light Rain,0,2013-05-23 02:55:00
5:00 AM,42,40,88,29.84,19,NW,2.2,,,Rain,Light Rain,320,2013-05-23 03:00:00
5:25 AM,42.8,39.2,87,29.83,6.2,Variable,2.3,-,N/A,,Drizzle,0,2013-05-23 03:25:00
5:55 AM,41.0,39.2,93,29.80,6.2,North,4.6,-,N/A,Rain,Light Rain,10,2013-05-23 03:55:00
6:25 AM,41.0,39.2,93,29.80,6.2,NE,3.5,-,N/A,,Scattered Clouds,40,2013-05-23 04:25:00
6:55 AM,42.8,41.0,93,29.80,6.2,Variable,2.3,-,N/A,,Mostly Cloudy,0,2013-05-23 04:55:00
7:25 AM,42.8,41.0,93,29.80,6.2,NNW,3.5,-,N/A,,Light Drizzle,330,2013-05-23 05:25:00
7:55 AM,42.8,39.2,87,29.80,6.2,WNW,4.6,-,N/A,Rain,Light Rain,300,2013-05-23 05:55:00
8:00 AM,44,40,82,29.80,14,WNW,4.5,,,Rain,Rain,300,2013-05-23 06:00:00
8:25 AM,44.6,39.2,81,29.80,6.2,West,3.5,-,N/A,,Mostly Cloudy,270,2013-05-23 06:25:00
8:55 AM,42.8,39.2,87,29.77,3.7,Variable,6.9,-,N/A,Rain,Rain Showers,0,2013-05-23 06:55:00
9:25 AM,44.6,39.2,81,29.77,6.2,NNW,6.9,-,N/A,,Overcast,340,2013-05-23 07:25:00
9:55 AM,46.4,39.2,76,29.77,6.2,NNW,12.7,-,N/A,,Mostly Cloudy,330,2013-05-23 07:55:00
10:25 AM,46.4,39.2,76,29.77,6.2,NNW,11.5,-,N/A,,Mostly Cloudy,340,2013-05-23 08:25:00
10:55 AM,48.2,39.2,71,29.77,6.2,North,10.4,-,N/A,,Mostly Cloudy,350,2013-05-23 08:55:00
11:00 AM,45,40,76,29.80,6,NNW,11.2,,,Rain,Light Rain Showers,330,2013-05-23 09:00:00
11:25 AM,46.4,41.0,81,29.77,6.2,NW,11.5,-,N/A,,Mostly Cloudy,320,2013-05-23 09:25:00
11:55 AM,46.4,42.8,87,29.77,6.2,NW,13.8,-,N/A,Rain,Light Rain,320,2013-05-23 09:55:00
12:25 PM,46.4,39.2,76,29.77,6.2,NW,15.0,-,N/A,,Mostly Cloudy,320,2013-05-23 10:25:00
12:55 PM,48.2,37.4,66,29.77,6.2,NW,13.8,-,N/A,,Partly Cloudy,320,2013-05-23 10:55:00
1:25 PM,48.2,39.2,71,29.77,6.2,NNW,12.7,-,N/A,,Mostly Cloudy,330,2013-05-23 11:25:00
1:55 PM,48.2,39.2,71,29.80,6.2,NNW,12.7,-,N/A,,Partly Cloudy,330,2013-05-23 11:55:00
2:00 PM,49,39,59,29.80,13,NNW,13.4,,,,Partly Cloudy,340,2013-05-23 12:00:00
2:25 PM,50.0,39.2,66,29.77,6.2,NNW,10.4,-,N/A,,Mostly Cloudy,330,2013-05-23 12:25:00
2:55 PM,48.2,37.4,66,29.77,6.2,NW,12.7,-,N/A,,Scattered Clouds,320,2013-05-23 12:55:00
3:25 PM,48.2,35.6,62,29.80,6.2,NW,13.8,-,N/A,,Mostly Cloudy,320,2013-05-23 13:25:00
3:55 PM,50.0,35.6,58,29.80,6.2,NW,13.8,-,N/A,,Unknown,320,2013-05-23 13:55:00
4:25 PM,50.0,39.2,66,29.80,6.2,NW,11.5,-,N/A,,Mostly Cloudy,310,2013-05-23 14:25:00
4:55 PM,50.0,39.2,66,29.80,6.2,NW,10.4,-,N/A,,Mostly Cloudy,310,2013-05-23 14:55:00
5:00 PM,49,40,61,29.81,11,NW,11.2,,,Rain,Rain,310,2013-05-23 15:00:00
5:25 PM,50.0,39.2,66,29.80,6.2,NW,11.5,-,N/A,,Mostly Cloudy,320,2013-05-23 15:25:00
5:55 PM,50.0,39.2,66,29.80,6.2,WNW,11.5,-,N/A,,Scattered Clouds,300,2013-05-23 15:55:00
6:25 PM,48.2,37.4,66,29.80,6.2,NW,11.5,-,N/A,,Mostly Cloudy,310,2013-05-23 16:25:00
6:55 PM,48.2,37.4,66,29.80,6.2,WNW,11.5,-,N/A,,Scattered Clouds,290,2013-05-23 16:55:00
7:25 PM,46.4,37.4,71,29.80,6.2,NW,9.2,-,N/A,,Partly Cloudy,310,2013-05-23 17:25:00
7:55 PM,46.4,37.4,71,29.80,6.2,NW,8.1,-,N/A,,Mostly Cloudy,310,2013-05-23 17:55:00
8:00 PM,46,38,63,29.82,22,NW,8.9,,,,Partly Cloudy,310,2013-05-23 18:00:00
8:25 PM,46.4,37.4,71,29.80,6.2,WNW,8.1,-,N/A,,Partly Cloudy,300,2013-05-23 18:25:00
8:55 PM,44.6,37.4,76,29.80,6.2,WNW,8.1,-,N/A,,Mostly Cloudy,290,2013-05-23 18:55:00
9:25 PM,42.8,37.4,81,29.80,6.2,West,6.9,-,N/A,,Unknown,280,2013-05-23 19:25:00
9:55 PM,42.8,37.4,81,29.83,6.2,West,4.6,-,N/A,,Unknown,260,2013-05-23 19:55:00
10:25 PM,42.8,39.2,87,29.83,6.2,West,4.6,-,N/A,,Drizzle,270,2013-05-23 20:25:00
10:55 PM,41.0,39.2,93,29.83,6.2,West,4.6,-,N/A,,Scattered Clouds,260,2013-05-23 20:55:00
11:00 PM,41,38,87,29.84,18,West,4.5,,,Rain,Rain,270,2013-05-23 21:00:00
11:25 PM,39.2,37.4,93,29.83,6.2,WSW,4.6,-,N/A,,Scattered Clouds,250,2013-05-23 21:25:00
11:55 PM,41.0,39.2,93,29.83,6.2,WSW,3.5,-,N/A,,Mostly Cloudy,250,2013-05-23 21:55:00